Location: Nianha
(10.8000°N, 4.6333°W)
Time: 01:24:51
(UTC+00:00)

CZ-2C R/B - Pass Details

Date: 14 November 2019
Orbit: 668 x 784 km, 98.1° (Epoch: 28 January)

Event Time Altitude Azimuth Distance (km) Brightness Sun altitude
Exits shadow 04:08:46 46° 81° (E) 917 3.1 -30.3°
Maximum altitude 04:09:13 48° 101° (E) 893 3.1 -30.2°
Drops below altitude 10° 04:13:39 10° 175° (S) 2,106 5.0 -29.1°
Sets 04:15:55 0° 181° (S) 3,011 5.8 -28.6°
